Regional Weather Roundup
Issued by NWS

Home | Current Version | Previous Version | Text Only | Print | Product List | Glossary Off
Versions: 1 2 3 4 5 6 7 8 9 10 11 12 13 14 15 16 17 18 19 20 21 22 23 24 25 26 27 28 29 30 31 32 33 34 35 36 37 38 39 40 41 42 43 44 45 46 47 48 49 50

163
ASUS43 KBIS 260202
RWRND

NORTH DAKOTA REGIONAL WEATHER ROUNDUP
NATIONAL WEATHER SERVICE BISMARCK ND
800 PM CST SAT FEB 25 2017

NOTE: "FAIR" INDICATES FEW OR NO CLOUDS BELOW 12,000 FEET WITH NO
SIGNIFICANT WEATHER AND/OR OBSTRUCTIONS TO VISIBILITY.


NDZ001>003-009>011-017-260300-
NORTHWEST NORTH DAKOTA

CITY           SKY/WX    TMP DP  RH WIND       PRES   REMARKS
WILLISTON      FAIR      14  11  87 N7        29.70S WCI   4
MINOT          LGT SNOW  17  13  84 N9        29.69S VSB 3/4 WCI   6
MINOT AFB      LGT SNOW  14  12  92 N9        29.69S FOG     WCI   2
$$

NDZ018>021-031>035-040>046-260300-
SOUTHWEST NORTH DAKOTA

CITY           SKY/WX    TMP DP  RH WIND       PRES   REMARKS
BISMARCK       CLOUDY    24  20  84 S6        29.68F WCI  17
DICKINSON      FAIR      20  16  84 W9        29.61F WCI   9
GARRISON         N/A     24  20  84 S8        29.61F WCI  15
HETTINGER ARPT PTCLDY    20  18  92 W5        29.67F WCI  13
$$

NDZ004>008-012>016-024-026-027-054-260300-
NORTHEAST NORTH DAKOTA

CITY           SKY/WX    TMP DP  RH WIND       PRES   REMARKS
GRAND FORKS    CLOUDY    22  11  62 N14       29.75S WCI   9
GRND FRKS AFB  FLURRIES  21  14  76 N12       29.75S WCI   9
DEVILS LAKE    LGT SNOW  18  12  77 N7        29.71F WCI   9
$$

NDZ022-023-025-028>030-036>039-047>053-260300-
SOUTHEAST NORTH DAKOTA

CITY           SKY/WX    TMP DP  RH WIND       PRES   REMARKS
FARGO          CLOUDY    27  21  78 W7        29.74F WCI  19
JAMESTOWN      FAIR      22  17  81 W3        29.70F
$$





USA.gov is the U.S. government's official web portal to all federal, state and local government web resources and services.